EW2309 Weather Reports


time (UTC)temp
C
wind
direction
speed
KPH
gust
KPH
rain 1hr
cm
rain 24hr
cm
rain mn
cm
humidity
%
barometer
mb
20260504081534 8 200 0.0 3.2 0.00 0.00 0.00 74 1016.4
20260504044538 10 200 0.0 0.0 0.00 0.00 0.00 69 1017.6
20260504043033 10 200 0.0 0.0 0.00 0.00 0.00 69 1017.8
20260504041526 10 201 0.0 0.0 0.00 0.00 0.00 67 1017.9
20260504040026 11 202 0.0 1.6 0.00 0.00 0.00 65 1017.9
20260504034535 11 204 0.0 3.2 0.00 0.00 0.00 64 1017.8
20260504033035 11 203 0.0 4.8 0.00 0.00 0.00 64 1017.8
20260504031525 11 205 1.6 4.8 0.00 0.00 0.00 64 1017.9
20260504030024 11 208 0.0 1.6 0.00 0.00 0.00 64 1018.0
20260504024510 12 208 0.0 3.2 0.00 0.00 0.00 63 1017.7
20260504023005 12 180 0.0 3.2 0.00 0.00 0.00 64 1017.6
20260504021548 11 180 0.0 4.8 0.00 0.00 0.00 64 1017.6
20260504020048 11 180 0.0 3.2 0.00 0.00 0.00 66 1017.6
20260504014530 11 179 0.0 1.6 0.00 0.00 0.00 64 1017.5
20260504013035 12 180 0.0 1.6 0.00 0.00 0.00 64 1017.3
20260504011512 12 178 0.0 0.0 0.00 0.00 0.00 62 1017.2
20260504010011 12 173 0.0 0.0 0.00 0.00 0.00 63 1017.1
20260504004554 13 171 0.0 0.0 0.00 0.00 0.00 62 1017.0
20260504003053 13 175 0.0 0.0 0.00 0.00 0.00 61 1016.9
20260504001541 15 169 0.0 0.0 0.00 0.00 0.00 58 1017.0
20260504000039 15 169 0.0 1.6 0.00 0.00 0.00 57 1017.0
20260503234518 16 169 0.0 3.2 0.00 0.00 0.00 52 1017.0
20260503233017 16 170 1.6 4.8 0.00 0.00 0.00 52 1017.0
20260503231558 17 163 0.0 3.2 0.00 0.00 0.00 55 1017.1
20260503230058 17 163 0.0 3.2 0.00 0.00 0.00 51 1017.1
20260503224539 17 163 0.0 6.4 0.00 0.00 0.00 48 1017.2
20260503223042 18 331 0.0 0.0 0.00 0.00 0.00 51 1017.3
20260503221530 18 329 0.0 6.4 0.00 0.00 0.00 46 1017.2
20260503220021 18 246 1.6 4.8 0.00 0.00 0.00 46 1017.2
20260503214502 19 5 1.6 12.9 0.00 0.00 0.00 47 1017.4
20260503213002 20 45 1.6 8.0 0.00 0.00 0.00 47 1017.5
20260503211609 19 200 0.0 3.2 0.00 0.00 0.00 46 1017.7
20260503210040 20 200 1.6 6.4 0.00 0.00 0.00 46 1017.9
20260503204538 19 188 1.6 14.5 0.00 0.00 0.00 46 1018.1
20260503203019 19 199 1.6 4.8 0.00 0.00 0.00 44 1018.4
20260503201527 19 235 3.2 9.7 0.00 0.00 0.00 44 1018.7
20260503200058 18 221 3.2 14.5 0.00 0.00 0.00 45 1019.0
20260503194556 19 46 0.0 6.4 0.00 0.00 0.00 44 1019.2
20260503193041 18 218 3.2 11.3 0.00 0.00 0.00 43 1019.5
20260503191536 18 84 1.6 9.7 0.00 0.00 0.00 42 1019.6
20260503190020 17 123 0.0 4.8 0.00 0.00 0.00 48 1019.8
20260503184520 18 87 1.6 8.0 0.00 0.00 0.00 42 1019.9
20260503183059 18 91 1.6 4.8 0.00 0.00 0.00 43 1020.0
20260503181619 17 61 0.0 4.8 0.00 0.00 0.00 43 1020.2
20260503180031 17 199 1.6 8.0 0.00 0.00 0.00 44 1020.3
20260503174529 16 207 1.6 6.4 0.00 0.00 0.00 47 1020.6
20260503173037 16 184 4.8 11.3 0.00 0.00 0.00 49 1020.7
20260503171514 16 340 3.2 8.0 0.00 0.00 0.00 48 1021.0
20260503120106 5 165 0.0 0.0 0.00 0.00 0.00 94 1021.1